Location: Moulis
(42.9609°N, 1.0909°E)
Time: 14:19:24
(UTC+00:00)

Cosmos 1782 - Pass Details

Date: 11 December 2025
Orbit: 464 x 475 km, 82.5° (Epoch: 19 January)

Event Time Altitude Azimuth Distance (km) Brightness Sun altitude
Rises 17:17:21 0° 208° (SSW) 2,523 7.1 -10.0°
Reaches altitude 10° 17:19:35 10° 218° (SW) 1,648 6.3 -10.4°
Maximum altitude 17:22:51 32° 283° (WNW) 840 4.4 -10.9°
Drops below altitude 10° 17:26:09 10° 349° (NNW) 1,655 5.2 -11.5°
Sets 17:28:24 0° 359° (N) 2,536 6.0 -11.9°
